Terminal Aerodrome Forecast
Issued by NWS Houston/Galveston, TX

Home | Current Version | Previous Version | Text Only | Print | Product List | Glossary On
Versions: 1 2 3 4 5 6 7 8 9 10 11 12 13 14 15 16 17 18 19 20 21 22 23 24 25 26 27 28 29 30 31 32 33 34 35 36 37 38 39 40 41 42 43 44 45 46 47 48 49 50
000
FTUS44 KHGX 240526
TAFGLS
TAF
KGLS 240526Z 2406/2506 15017G25KT P6SM VCSH SCT019
      TEMPO 2408/2412 5SM -TSRA BR BKN015CB
     FM241200 16019G25KT 3SM TSRA BR SCT007 BKN015CB
     FM242200 16017G22KT 5SM -SHRA BR SCT007 BKN015
     FM250300 16017KT P6SM BKN050=

USA.gov is the U.S. government's official web portal to all federal, state and local government web resources and services.